Hourly Data Report for September 06, 2017

All times are specified in Local Standard Time (LST). Add 1 hour to adjust for Daylight Saving Time where and when it is observed.

GRAND MANAN SAR CS
NEW BRUNSWICK

44°42'43.400" N
66°48'06.900" W
78.20 m
8101925
71030
XGM

Download Data

Hourly Data (September 2017)
Hourly Data Report for September 6, 2017
Temp Definition
°C
Dew Point Temp Definition
°C
Rel Hum Definition
%
Wind Dir Definition
10's deg

Wind Spd Definition
km/h
Visibility Definition
km
Stn Press Definition
kPa
Hmdx Definition


Wind Chill Definition


Weather Definition


TIME
00:00 16.8 15.7 94 21 20   100.33     LegendNANA
01:00 16.5 15.5 93 21 23   100.31     LegendNANA
02:00 16.2 15.3 94 21 22   100.32     LegendNANA
03:00 16.4 15.8 96 21 20   100.35     LegendNANA
04:00 16.9 16.5 97 21 18   100.37     LegendNANA
05:00 15.9 15.4 97 20 20   100.42     LegendNANA
06:00 15.7 15.4 98 21 20   100.47     LegendNANA
07:00 16.0 15.8 99 21 20   100.55     LegendNANA
08:00 16.7 16.3 98 20 20   100.53     LegendNANA
09:00 16.9 16.1 95 20 21   100.59     LegendNANA
10:00 16.9 15.9 94 20 19   100.64     LegendNANA
11:00 16.1 15.7 97 21 15   100.68     LegendNANA
12:00 16.7 16.2 97 20 15   100.65     LegendNANA
13:00 16.1 15.7 98 21 15   100.63     LegendNANA
14:00 16.5 16.2 99 20 18   100.59     LegendNANA
15:00 17.1 16.9 99 19 18   100.57     LegendNANA
16:00 17.2 17.0 99 20 24   100.59     LegendNANA
17:00 17.5 17.2 98 21 20   100.64     LegendNANA
18:00 16.5 16.1 98 19 15   100.62     LegendNANA
19:00 17.8 17.6 99 20 20   100.63     LegendNANA
20:00 16.8 16.6 99 20 11   100.66     LegendNANA
21:00 17.2 17.1 99 18 14   100.62     LegendNANA
22:00 17.5 17.3 99 18 21   100.63     LegendNANA
23:00 17.5 17.4 99 18 13   100.57     LegendNANA

Notes on Data Quality.

Legend

  • E = Estimated
  • M = Missing
  • NA = Not Available
  • ‡ = Partner data that is not subject to review by the National Climate Archives
Date modified: